Weather History for Driggs, ID

Change the Weather History Date:

Sunday, May 13, 2012

  Actual Average (KRXE) Record (KRXE)
Temperature  
Mean Temperature 48 °F 52 °F  
Max Temperature 70 °F 65 °F 86 °F (2013)
Min Temperature 28 °F 38 °F 27 °F (2009)
Degree Days  
Heating Degree Days 17 13  
Month to date heating degree days 198  
Since 1 July heating degree days 7763  
Cooling Degree Days 0 0  
Month to date cooling degree days 0  
Year to date cooling degree days 0  
Moisture  
Dew Point 20 °F    
Average Humidity 36    
Maximum Humidity 75    
Minimum Humidity 11    
Precipitation  
Precipitation 0.00 in 0.05 in 0.46 in (1990)
Month to date precipitation 0.70  
Year to date precipitation 4.81  
Sea Level Pressure  
Sea Level Pressure 30.21 in    
Wind  
Wind Speed 3 mph (NNW)    
Max Wind Speed 10 mph    
Max Gust Speed -    
Visibility 10 miles    
Events      
T = Trace of Precipitation, MM = Missing Value Source: NWS Daily Summary

Daily Weather History Graph

Daily Weather History Graph

Search for Another Location

Airport:

Trip Planner

Search our weather history database for the weather conditions in past years. The results will help you decide how hot, cold, wet, or windy it might be!

Date:

Astronomy

May. 13, 2012 Rise Set
Actual Time 6:00 AM MDT 8:41 PM MDT
Civil Twilight 5:27 AM MDT 9:14 PM MDT
Nautical Twilight 4:46 AM MDT 9:56 PM MDT
Astronomical Twilight 3:58 AM MDT 10:44 PM MDT
Moon 2:20 AM MDT (5/13) 1:53 PM MDT (5/13)
Length of Visible Light 15h 47m
Length of Day
14h 40m
Last Quarter, 41% of the Moon is Illuminated
May 13
Last Quarter
May 20
New
May 28
First Quarter
Jun 4
Full
Jun 11
Last Quarter

Hourly Weather History & Observations

Time (MDT) Temp. Windchill Dew Point Humidity Pressure Visibility Wind Dir Wind Speed Gust Speed Precip Events Conditions
12:56 AM 37.9 °F - 22.1 °F 53% 30.20 in 10.0 mi Calm Calm - N/A   Clear
1:56 AM 34.9 °F - 23.0 °F 62% 30.22 in 10.0 mi Calm Calm - N/A   Clear
2:56 AM 36.0 °F 30.3 °F 23.0 °F 59% 30.21 in 10.0 mi East 6.9 mph - N/A   Clear
3:56 AM 32.0 °F 26.4 °F 22.1 °F 67% 30.23 in 10.0 mi SSE 5.8 mph - N/A   Clear
4:56 AM 34.0 °F 31.0 °F 21.0 °F 59% 30.22 in 10.0 mi NNE 3.5 mph - N/A   Clear
5:56 AM 28.0 °F 24.2 °F 21.0 °F 75% 30.25 in 10.0 mi East 3.5 mph - N/A   Clear
6:56 AM 34.0 °F - 24.1 °F 67% 30.25 in 10.0 mi Calm Calm - N/A   Clear
7:56 AM 43.0 °F - 24.1 °F 47% 30.24 in 10.0 mi Calm Calm - N/A   Clear
8:56 AM 50.0 °F - 28.0 °F 43% 30.24 in 10.0 mi SW 4.6 mph - N/A   Clear
9:56 AM 55.9 °F - 22.1 °F 27% 30.26 in 10.0 mi Calm Calm - N/A   Clear
10:56 AM 59.9 °F - 17.1 °F 19% 30.25 in 10.0 mi Variable 4.6 mph - N/A   Clear
11:56 AM 61.9 °F - 15.1 °F 16% 30.25 in 10.0 mi NW 5.8 mph - N/A   Clear
12:56 PM 64.9 °F - 11.1 °F 12% 30.22 in 10.0 mi West 6.9 mph - N/A   Clear
1:56 PM 64.9 °F - 10.0 °F 12% 30.22 in 10.0 mi Variable 5.8 mph - N/A   Clear
2:56 PM 66.9 °F - 11.1 °F 11% 30.19 in 10.0 mi Variable 3.5 mph - N/A   Clear
3:56 PM 68.0 °F - 11.1 °F 11% 30.19 in 10.0 mi Variable 4.6 mph - N/A   Clear
4:56 PM 68.9 °F - 15.1 °F 13% 30.17 in 10.0 mi Variable 5.8 mph - N/A   Clear
5:56 PM 68.9 °F - 17.1 °F 14% 30.19 in 10.0 mi NW 10.4 mph - N/A   Clear
6:56 PM 66.9 °F - 16.2 °F 14% 30.17 in 10.0 mi NW 6.9 mph - N/A   Clear
7:56 PM 63.9 °F - 25.2 °F 23% 30.14 in 10.0 mi WNW 4.6 mph - N/A   Clear
8:56 PM 45.9 °F 42.3 °F 27.1 °F 48% 30.19 in 10.0 mi East 6.9 mph - N/A   Clear
9:56 PM 47.8 °F - 21.0 °F 35% 30.17 in 10.0 mi Variable 3.5 mph - N/A   Clear
10:56 PM 46.9 °F - 20.1 °F 35% 30.17 in 10.0 mi NNW 4.6 mph - N/A   Clear
11:56 PM 43.0 °F - 23.0 °F 45% 30.17 in 10.0 mi Calm Calm - N/A   Clear